When you browse on this site, cookies collect data to enhance your experience and personalize the content and advertising you see.
Visit our Privacy Policy to learn more. By continuing to use the site, you agree to this use of cookies and data.
  • In Romania
  • List of Countries
  • For 7 days
  • Water Temperature
  • Weather Map
  • Weather Widgets
  • user-avatar
    Login

    Hourly Weather Canillo

    Today, 27 May, Wednesday

    Time Temperature Precipitation Wind Pressure Humidity
    00:00 +7°C° 0 mm 2 mps 624 mmHg 75%
    01:00 +7°C° 0 mm 2 mps 623 mmHg 72%
    02:00 +8°C° 0 mm 1 mps 623 mmHg 68%
    03:00 +7°C° 0 mm 1 mps 623 mmHg 64%
    04:00 +9°C° 0 mm 1 mps 624 mmHg 64%
    05:00 +10°C° 0 mm 1 mps 624 mmHg 64%
    06:00 +11°C° 0 mm 1 mps 625 mmHg 64%
    07:00 +13°C° 0 mm 1 mps 626 mmHg 57%
    08:00 +15°C° 0 mm 1 mps 627 mmHg 50%
    09:00 +18°C° 0 mm 1 mps 628 mmHg 43%
    10:00 +19°C° 0 mm 1 mps 628 mmHg 43%
    11:00 +19°C° 0 mm 2 mps 628 mmHg 43%
    12:00 +19°C° 0 mm 2 mps 628 mmHg 43%
    13:00 +18°C° 0.3 mm 2 mps 628 mmHg 52%
    14:00 +17°C° 0.3 mm 2 mps 627 mmHg 60%
    15:00 +16°C° 0.3 mm 2 mps 627 mmHg 68%
    16:00 +15°C° 0.6 mm 1 mps 627 mmHg 75%
    17:00 +14°C° 0.6 mm 1 mps 626 mmHg 82%
    18:00 +13°C° 0.6 mm 1 mps 626 mmHg 88%
    19:00 +12°C° 0.2 mm 1 mps 626 mmHg 91%
    20:00 +11°C° 0.2 mm 1 mps 626 mmHg 93%
    21:00 +10°C° 0.2 mm 1 mps 626 mmHg 95%
    22:00 +10°C° 0 mm 1 mps 625 mmHg 95%
    23:00 +10°C° 0 mm 1 mps 625 mmHg 95%

    Tomorrow, 28 May, Thursday

    Time Temperature Precipitation Wind Pressure Humidity
    00:00 +10°C° 0 mm 1 mps 625 mmHg 94%
    01:00 +9°C° 0 mm 1 mps 625 mmHg 94%
    02:00 +9°C° 0 mm 1 mps 624 mmHg 93%
    03:00 +9°C° 0 mm 1 mps 624 mmHg 92%
    04:00 +9°C° 0 mm 1 mps 624 mmHg 88%
    05:00 +10°C° 0 mm 1 mps 624 mmHg 85%
    06:00 +10°C° 0 mm 1 mps 624 mmHg 82%
    07:00 +13°C° 0 mm 1 mps 625 mmHg 70%
    08:00 +15°C° 0 mm 1 mps 626 mmHg 57%
    09:00 +18°C° 0 mm 1 mps 627 mmHg 45%
    10:00 +19°C° 0 mm 1 mps 627 mmHg 43%
    11:00 +19°C° 0 mm 1 mps 627 mmHg 42%
    12:00 +19°C° 0 mm 2 mps 627 mmHg 40%
    13:00 +19°C° 0.2 mm 2 mps 626 mmHg 46%
    14:00 +18°C° 0.2 mm 2 mps 625 mmHg 52%
    15:00 +18°C° 0.2 mm 1 mps 625 mmHg 57%
    16:00 +16°C° 0.4 mm 1 mps 624 mmHg 64%
    17:00 +15°C° 0.4 mm 1 mps 623 mmHg 71%
    18:00 +14°C° 0.4 mm 1 mps 623 mmHg 77%
    19:00 +13°C° 0 mm 1 mps 622 mmHg 82%
    20:00 +11°C° 0 mm 1 mps 622 mmHg 86%
    21:00 +10°C° 0 mm 1 mps 621 mmHg 90%
    22:00 +9°C° 0 mm 1 mps 621 mmHg 89%
    23:00 +9°C° 0 mm 1 mps 620 mmHg 87%

    Day after tomorrow, 29 May, Friday

    Time Temperature Precipitation Wind Pressure Humidity
    00:00 +9°C° 0 mm 1 mps 620 mmHg 86%
    01:00 +8°C° 0 mm 1 mps 620 mmHg 82%
    02:00 +8°C° 0 mm 1 mps 619 mmHg 78%
    03:00 +8°C° 0 mm 1 mps 619 mmHg 74%
    04:00 +9°C° 0 mm 1 mps 619 mmHg 72%
    05:00 +10°C° 0 mm 1 mps 619 mmHg 70%
    06:00 +11°C° 0 mm 1 mps 620 mmHg 67%
    07:00 +13°C° 0 mm 1 mps 620 mmHg 57%
    08:00 +15°C° 0 mm 1 mps 621 mmHg 46%
    09:00 +19°C° 0 mm 1 mps 622 mmHg 36%
    10:00 +20°C° 0 mm 1 mps 622 mmHg 34%
    11:00 +21°C° 0 mm 1 mps 622 mmHg 33%
    12:00 +20°C° 0 mm 2 mps 622 mmHg 32%
    13:00 +20°C° 0.1 mm 2 mps 622 mmHg 36%
    14:00 +19°C° 0.1 mm 2 mps 621 mmHg 41%
    15:00 +19°C° 0.1 mm 3 mps 620 mmHg 45%
    16:00 +17°C° 0.4 mm 2 mps 620 mmHg 56%
    17:00 +16°C° 0.4 mm 2 mps 619 mmHg 67%
    18:00 +14°C° 0.4 mm 1 mps 618 mmHg 77%
    19:00 +13°C° 0.3 mm 1 mps 618 mmHg 83%
    20:00 +11°C° 0.3 mm 1 mps 618 mmHg 88%
    21:00 +10°C° 0.3 mm 1 mps 618 mmHg 94%
    22:00 +9°C° 0 mm 1 mps 618 mmHg 93%
    23:00 +9°C° 0 mm 1 mps 617 mmHg 91%

    30 May, Saturday

    Time Temperature Precipitation Wind Pressure Humidity
    00:00 +9°C° 0 mm 1 mps 617 mmHg 90%
    01:00 +8°C° 0 mm 1 mps 617 mmHg 88%
    02:00 +8°C° 0 mm 1 mps 617 mmHg 87%
    03:00 +8°C° 0 mm 1 mps 617 mmHg 85%
    04:00 +8°C° 0 mm 1 mps 617 mmHg 84%
    05:00 +9°C° 0 mm 1 mps 618 mmHg 84%
    06:00 +10°C° 0 mm 1 mps 618 mmHg 84%
    07:00 +12°C° 0 mm 1 mps 619 mmHg 72%
    08:00 +15°C° 0 mm 1 mps 620 mmHg 61%
    09:00 +18°C° 0 mm 1 mps 621 mmHg 50%
    10:00 +19°C° 0 mm 1 mps 621 mmHg 47%
    11:00 +19°C° 0 mm 1 mps 622 mmHg 44%
    12:00 +19°C° 0 mm 2 mps 622 mmHg 41%
    13:00 +19°C° 0.1 mm 2 mps 621 mmHg 45%
    14:00 +18°C° 0.1 mm 2 mps 621 mmHg 50%
    15:00 +18°C° 0.1 mm 2 mps 621 mmHg 54%
    16:00 +17°C° 0.1 mm 2 mps 620 mmHg 62%
    17:00 +16°C° 0.1 mm 1 mps 620 mmHg 69%
    18:00 +15°C° 0.1 mm 1 mps 619 mmHg 77%
    19:00 +13°C° 0 mm 1 mps 619 mmHg 82%
    20:00 +12°C° 0 mm 1 mps 619 mmHg 88%
    21:00 +9°C° 0 mm 0 mps 618 mmHg 94%
    22:00 +10°C° 0 mm 1 mps 618 mmHg 93%
    23:00 +10°C° 0 mm 1 mps 618 mmHg 93%

    31 May, Sunday

    Time Temperature Precipitation Wind Pressure Humidity
    00:00 +9°C° 0 mm 1 mps 618 mmHg 92%
    01:00 +9°C° 0 mm 1 mps 618 mmHg 90%
    02:00 +9°C° 0 mm 1 mps 617 mmHg 88%
    03:00 +9°C° 0 mm 1 mps 617 mmHg 86%
    04:00 +10°C° 0 mm 1 mps 618 mmHg 82%
    05:00 +11°C° 0 mm 1 mps 618 mmHg 78%
    06:00 +12°C° 0 mm 1 mps 619 mmHg 74%
    07:00 +14°C° 0 mm 1 mps 620 mmHg 64%
    08:00 +16°C° 0 mm 1 mps 621 mmHg 54%
    09:00 +19°C° 0 mm 1 mps 622 mmHg 44%
    10:00 +20°C° 0 mm 1 mps 622 mmHg 42%
    11:00 +20°C° 0 mm 2 mps 622 mmHg 40%
    12:00 +21°C° 0 mm 2 mps 622 mmHg 39%
    13:00 +20°C° 0.2 mm 2 mps 621 mmHg 44%
    14:00 +20°C° 0.2 mm 2 mps 621 mmHg 50%
    15:00 +19°C° 0.2 mm 2 mps 620 mmHg 56%
    16:00 +19°C° 0.5 mm 1 mps 620 mmHg 62%
    17:00 +18°C° 0.5 mm 1 mps 619 mmHg 69%
    18:00 +16°C° 0.5 mm 1 mps 619 mmHg 75%
    19:00 +15°C° 0.1 mm 1 mps 619 mmHg 79%
    20:00 +13°C° 0.1 mm 1 mps 618 mmHg 83%
    21:00 +12°C° 0.1 mm 1 mps 618 mmHg 86%
    22:00 +12°C° 0.1 mm 1 mps 618 mmHg 86%
    23:00 +11°C° 0.1 mm 1 mps 618 mmHg 86%

    1 June, Monday

    Time Temperature Precipitation Wind Pressure Humidity
    00:00 +11°C° 0.1 mm 1 mps 617 mmHg 86%
    01:00 +11°C° 0 mm 1 mps 617 mmHg 86%
    02:00 +11°C° 0 mm 1 mps 617 mmHg 86%
    03:00 +11°C° 0 mm 1 mps 617 mmHg 86%
    04:00 +12°C° 0 mm 1 mps 617 mmHg 84%
    05:00 +12°C° 0 mm 1 mps 618 mmHg 82%
    06:00 +13°C° 0 mm 1 mps 618 mmHg 80%
    07:00 +15°C° 0.2 mm 1 mps 619 mmHg 72%
    08:00 +18°C° 0.2 mm 1 mps 619 mmHg 64%
    09:00 +20°C° 0.2 mm 1 mps 620 mmHg 57%
    10:00 +20°C° 1.2 mm 1 mps 620 mmHg 60%
    11:00 +19°C° 1.2 mm 1 mps 619 mmHg 63%
    12:00 +19°C° 1.2 mm 1 mps 619 mmHg 66%
    13:00 +18°C° 2.3 mm 1 mps 618 mmHg 71%
    14:00 +16°C° 2.3 mm 1 mps 618 mmHg 77%
    15:00 +15°C° 2.3 mm 1 mps 617 mmHg 82%
    16:00 +14°C° 1.3 mm 1 mps 617 mmHg 84%
    17:00 +14°C° 1.3 mm 1 mps 617 mmHg 86%
    18:00 +13°C° 1.3 mm 1 mps 617 mmHg 88%
    19:00 +13°C° 1.3 mm 1 mps 617 mmHg 89%
    20:00 +12°C° 1.3 mm 2 mps 616 mmHg 90%
    21:00 +10°C° 1.3 mm 2 mps 616 mmHg 91%
    22:00 +10°C° 0.6 mm 2 mps 616 mmHg 90%
    23:00 +10°C° 0.6 mm 2 mps 616 mmHg 90%
    Show more